This is the latest recevied weather packets stored in our database for station/object KC9DRE. If no packets are shown the sender has not sent any weather packets the latest 10 day(s).
| Time | Temp. | Humidity | Pressure | Rain* | Wind** | Luminosity | Snow |
|---|---|---|---|---|---|---|---|
| 1787795457 | 22.22° C | 85% | 1014.6 hPa | 0 mm | - | 0 W/m² | - |
| 1787795156 | 21.67° C | 87% | 1014.5 hPa | 0 mm | - | 0 W/m² | - |
| 1787794855 | 21.67° C | 87% | 1014.4 hPa | 0 mm | - | 0 W/m² | - |
| 1787794551 | 21.67° C | 88% | 1014.5 hPa | 0 mm | - | 0 W/m² | - |
| 1787794246 | 21.67° C | 88% | 1014.6 hPa | 0 mm | - | 0 W/m² | - |
| 1787793941 | 21.67° C | 89% | 1014.3 hPa | 0 mm | - | 0 W/m² | - |
| 1787793638 | 21.67° C | 90% | 1014.5 hPa | 0 mm | - | 0 W/m² | - |
| 1787793333 | 21.67° C | 89% | 1014.6 hPa | 0 mm | - | 0 W/m² | - |
| 1787793033 | 21.67° C | 89% | 1014.6 hPa | 0 mm | - | 0 W/m² | - |
| 1787792728 | 21.67° C | 88% | 1014.6 hPa | 0 mm | - | 0 W/m² | - |
| 1787792426 | 22.22° C | 88% | 1014.4 hPa | 0 mm | - | 0 W/m² | - |
| 1787792125 | 22.22° C | 87% | 1014.3 hPa | 0 mm | - | 0 W/m² | - |
| 1787791823 | 22.78° C | 86% | 1014.2 hPa | 0 mm | - | 0 W/m² | - |
| 1787791519 | 22.78° C | 85% | 1014.3 hPa | 0 mm | - | 0 W/m² | - |
| 1787791214 | 23.33° C | 83% | 1014.4 hPa | 0 mm | - | 0 W/m² | - |
| 1787790909 | 23.89° C | 82% | 1014.3 hPa | 0 mm | - | 1 W/m² | - |
| 1787790604 | 23.89° C | 81% | 1014.4 hPa | 0 mm | - | 1 W/m² | - |
| 1787790299 | 24.44° C | 79% | 1014.4 hPa | 0 mm | - | 2 W/m² | - |
| 1787789995 | 24.44° C | 78% | 1014.2 hPa | 0 mm | - | 4 W/m² | - |
| 1787789695 | 25° C | 77% | 1014.1 hPa | 0 mm | - | 6 W/m² | - |
| 1787789390 | 25° C | 76% | 1014.1 hPa | 0 mm | - | 8 W/m² | - |
| 1787789090 | 25.56° C | 75% | 1014.2 hPa | 0 mm | - | 11 W/m² | - |
| 1787788788 | 25.56° C | 74% | 1014.1 hPa | 0 mm | - | 16 W/m² | - |
| 1787788482 | 26.11° C | 73% | 1014.1 hPa | 0 mm | - | 21 W/m² | - |
| 1787788177 | 26.11° C | 73% | 1014 hPa | 0 mm | - | 25 W/m² | - |
* Rain latest hour (hover to see other rain measurements)
** Current wind speed in m/s (hover to see current wind gust speed)